Regional Weather Roundup
Issued by NWS

Home | Current Version | Previous Version | Text Only | Print | Product List | Glossary On
Versions: 1 2 3 4 5 6 7 8 9 10 11 12 13 14 15 16 17 18 19 20 21 22 23 24 25 26 27 28 29 30 31 32 33 34 35 36 37 38 39 40 41 42 43 44 45 46 47 48 49 50
000
ASUS44 KLUB 231410
RWRTX

WEST TEXAS WEATHER ROUNDUP
NATIONAL WEATHER SERVICE LUBBOCK TX
ISSUED BY NWS AMARILLO TX
800 AM CST THU FEB 23 2017

NOTE: "FAIR" INDICATES FEW OR NO CLOUDS BELOW 12,000 FEET WITH NO
SIGNIFICANT WEATHER AND/OR OBSTRUCTIONS TO VISIBILITY.

TXZ006-008-012-026-029-035-037-231500-
TEXAS PANHANDLE/SOUTH PLAINS

CITY           SKY/WX    TMP DP  RH WIND       PRES   REMARKS
DALHART        CLEAR     42  33  70 S10       29.58F
PERRYTON       PTCLDY    45  32  61 S10       29.55F
BORGER         PTCLDY    52  34  50 S10       29.57F
AMARILLO       PTCLDY    46  34  62 S8        29.61F
CHILDRESS      CLEAR     53  35  50 N8        29.59F
LUBBOCK        PTCLDY    52  30  43 SW10      29.65F
PLAINVIEW      PTCLDY    56  30  37 SW14      29.60F
$$

TXZ060>062-072-075-082-231500-
PERMIAN BASIN/TRANS PECOS/CONCHO VALLEY/BIG COUNTRY

CITY           SKY/WX    TMP DP  RH WIND       PRES   REMARKS
WINK             N/A     52  26  36 SW9       29.70F
ODESSA         CLEAR     52  28  39 SW6       29.72S
MIDLAND        CLEAR     56  29  35 SW10      29.70F
FORT STOCKTON  CLEAR     61  20  20 SW14      29.75R
DRYDEN           N/A     64  26  23 NW7       29.72R
SAN ANGELO     CLEAR     50  39  66 SW7       29.68S
SWEETWATER     CLEAR     62  34  34 S12       29.69F
$$

TXZ055-057-080-231500-
FAR WEST/SOUTHWEST MOUNTAINS

CITY           SKY/WX    TMP DP  RH WIND       PRES   REMARKS
EL PASO        PTCLDY    54  26  34 S5        29.78S
MARFA          CLOUDY    37  21  52 N5        29.91R WCI  33
GUADALUPE PASS CLEAR     54  25  32 SW23G31   29.82F
$$




USA.gov is the U.S. government's official web portal to all federal, state and local government web resources and services.